Starlink 30614

operational
NORAD ID: 58098 Int'l Des: 2023-161 Owner: SPXS Country: US Constellation: starlink
LEOCIRCULAR

Starlink 30614について

説明を読み込み中...

リアルタイム位置

3D地球を読み込み中...

次回通過

高度履歴

Altitude vs Time

uPlot chart will show altitude changes over time

軌道要素

1 58098U 23161B 25347.35062707 .00000078 00000-0 14763-4 0 9994
2 58098 53.1610 206.5058 0001307 88.1636 271.9515 15.30185909121204
Epoch: Dec 13, 2025 • Age: 23 hours

現在のステータス

高度 476.1 km
速度 7.63 km/s
衛星直下点 0.06°N, 168.3°W
打ち上げ日 Oct 21, 2023
運用期間 2.1 years
タイプ internet

技術仕様

分類 Payload
質量 730.00 kg
乾燥質量 700.00 kg
総質量 730.00 kg
長さ 0.30 m
直径 4.10 m
スパン 29.00 m
形状 Box + pan
製造者 SPXS
バスタイプ Starlink V2M
フェーズステータス In Orbit
所有者/国 SPXS/US

大規模コンステレーション

Loading constellations...